Regional Weather Roundup
Issued by NWS

Home | Current Version | Previous Version | Graphics & Text | Print | Product List | Glossary On
Versions: 1 2 3 4 5 6 7 8 9 10 11 12 13 14 15 16 17 18 19 20 21 22 23 24 25 26 27 28 29 30 31 32 33 34 35 36 37 38 39 40 41 42 43 44 45 46 47 48 49 50
000
ASUS43 KMPX 090510
RWRMN
WEATHER ROUNDUP FOR MINNESOTA
NATIONAL WEATHER SERVICE TWIN CITIES/CHANHASSEN MN
1100 PM CST THU DEC 08 2016


NOTE: "FAIR" INDICATES FEW OR NO CLOUDS BELOW 12,000 FEET WITH NO
SIGNIFICANT WEATHER AND/OR OBSTRUCTIONS TO VISIBILITY. N/A MEANS
CURRENT SKY AND/OR WEATHER CONDITIONS ARE NOT AVAILABLE.

MNZ060>063-068>070-090600-
   Twin Cities Metro

CITY           SKY/WX    TMP DP  RH WIND       PRES   REMARKS
TWIN CITIES    CLOUDY    19  10  68 NW14      30.51R WCI   6
ST PAUL        MOCLDY    19  12  74 NW15      30.52R WCI   5
CRYSTAL        CLOUDY    17   9  70 NW12      30.50R WCI   4
BLAINE         CLOUDY    19  12  73 NW9       30.50R WCI   9
LAKEVILLE      FLURRIES  16  12  86 W9        30.50R WCI   4
EDEN PRAIRIE   CLOUDY    18  11  74 W13       30.51R WCI   5
SOUTH ST PAUL  CLOUDY    20  12  71 NW6       30.51R WCI  13
LAKE ELMO      CLOUDY    19  14  79 NW9       30.50R WCI   9
$$
MNZ001>005-007-008-013>017-022>024-027-028-090600-
   Northwest Minnesota

CITY           SKY/WX    TMP DP  RH WIND       PRES   REMARKS
BEMIDJI        FLURRIES   9   5  86 NW9       30.47R WCI  -5
HALLOCK        CLOUDY     9   3  78 N7        30.57S WCI  -3
ROSEAU         MOCLDY     0  -4  85 W5        30.53S WCI -10
WARROAD        CLOUDY     3   0  85 NW12      30.51S WCI -13
THIEF RVR FALL CLOUDY     3   0  87 NW6       30.55S WCI  -8
CROOKSTON      CLOUDY     9   3  78 N7        30.58S WCI  -3
FOSSTON        FLURRIES   3   1  92 NW7       30.52S WCI  -9
DETROIT LAKES  LGT SNOW   9   7  92 NW12      30.52S WCI  -6
MOORHEAD       MIX PCPN   7   1  78 W8        30.59S WCI  -6
PARK RAPIDS    CLOUDY    11   4  73 NW12      30.47S WCI  -3
$$
MNZ006-009>011-018-025>026-090600-
   North Central Minnesota

CITY           SKY/WX    TMP DP  RH WIND       PRES   REMARKS
BAUDETTE       FLURRIES   7   2  80 W12       30.47R WCI  -8
FLAG ISLAND    CLOUDY     9   3  78 W17       30.48S WCI -10
INTL FALLS     CLOUDY    10   4  76 W7        30.44R WCI  -1
WASKISH        MOCLDY     9   7  92 NW7       30.48R WCI  -3
BIG FORK       LGT SNOW  12   9  85 N3        30.44S
LONGVILLE      LGT SNOW  14  10  85 W6        30.46S WCI   5
GRAND RAPIDS   FLURRIES  14  10  84 NW6       30.46R WCI   5
CRANE LAKE     CLOUDY    10   9  92 CALM      30.44R
ORR            CLOUDY    12   7  79 CALM      30.39S
COOK           FLURRIES  12   7  79 W8        30.41S WCI   1
$$
MNZ012-019>021-037-090600-
   Northeast Minnesota

CITY           SKY/WX    TMP DP  RH WIND       PRES   REMARKS
DULUTH         MOCLDY    14   8  77 NW9       30.39R WCI   2
ELY            FLURRIES  10   7  85 W5        30.38R WCI   2
HIBBING        PTCLDY     8   2  76 NW13      30.42R WCI  -8
EVELETH        MOCLDY    15   8  75 W9        30.42R WCI   3
DULUTH HARBOR  MOCLDY    19  12  73 W14       30.47R WCI   6
TWO HARBORS    CLOUDY    19  12  73 CALM      30.39R
SILVER BAY     PTCLDY    16   9  73 CALM      30.38R
GRAND MARAIS     N/A     18   7  62 CALM      30.40R
G MARAIS ARPRT CLOUDY    10   3  72 NW6       30.29R WCI   1
$$
MNZ029>031-032-039>041-046>048-054>057-064-090600-
   West Central Minnesota

CITY           SKY/WX    TMP DP  RH WIND       PRES   REMARKS
FERGUS FALLS   LGT SNOW   3   0  85 NW9       30.62S WCI -11
WHEATON        CLOUDY     3   0  85 W12       30.62S WCI -13
MORRIS         CLEAR      3   0  85 NW9       30.57S WCI -11
ALEXANDRIA     CLEAR      5   2  87 W12       30.52R WCI -11
ELBOW LAKE     FAIR       2  -1  85 NW12      30.57S WCI -14
WADENA         LGT SNOW   9   7  92 W7        30.50R WCI  -3
GLENWOOD       CLOUDY     7   3  85 W10       30.53R FOG     WCI  -8
APPLETON       CLEAR      7   0  72 NW10      30.60R WCI  -8
BENSON         PTCLDY     5   0  78 N9        30.57S WCI  -9
ORTONVILLE     CLEAR      3  -2  78 NW7G18    30.59S WCI  -9
MADISON        CLEAR      7   1  78 NW9       30.60S WCI  -7
WILLMAR        CLOUDY    10   7  85 NW15      30.56R WCI  -6
$$
MNZ033>034-036-042>043-049>051-058-059-090600-
   Central Minnesota

CITY           SKY/WX    TMP DP  RH WIND       PRES   REMARKS
ST CLOUD       CLEAR     11   8  88 NW8       30.51R WCI  -1
PAYNESVILLE    MOCLDY    10   9  93 W10G16    30.53R WCI  -4
AITKIN         CLOUDY    16   9  73 CALM      30.45S
PINE RIVER     FLURRIES  12   9  85 CALM      30.49S
BRAINERD       MOCLDY    12  10  92 W6        30.48S WCI   3
STAPLES        CLOUDY    10   7  85 W9        30.49S WCI  -2
LONG PRAIRIE   CLOUDY    12   9  85 W6        30.51R WCI   3
LITTLE FALLS   CLEAR     10   7  85 NW6       30.51R WCI   1
LITCHFIELD     CLEAR     12  10  92 NW9       30.53R WCI   0
BUFFALO        CLEAR     15  10  81 W9        30.53R WCI   3
MAPLE LAKE     CLEAR     15  12  89 W7        30.52S WCI   5
HUTCHINSON     PTCLDY    12   9  87 W9        30.54R WCI   0
$$
MNZ037-044-045-052-053-090600-
   East Central Minnesota

CITY           SKY/WX    TMP DP  RH WIND       PRES   REMARKS
PRINCETON      PTCLDY    16  10  79 W9        30.50R WCI   4
MORA           CLEAR     18  10  73 N9        30.49S WCI   6
CAMBRIDGE      CLEAR     16   9  73 W5        30.48R WCI   9
RUSH CITY      CLOUDY    18  12  79 NW6       30.48S WCI   9
MOOSE LAKE     CLOUDY    18   9  68 N7        30.44R WCI   8
HINCKLEY       FAIR      18  10  73 NW7       30.47R WCI   8
CLOQUET        PTCLDY    12   5  73 NW13      30.42S WCI  -3
MCGREGOR       CLOUDY    16  10  79 W3        30.46R
$$
MNZ071>073-080-081-089-090-097-098-090600-
   Southwest Minnesota

CITY           SKY/WX    TMP DP  RH WIND       PRES   REMARKS
MONTEVIDEO     CLEAR      7   1  78 N12       30.60S WCI  -9
GRANITE FALLS  CLEAR      9   4  81 W14       30.61R WCI  -8
CANBY          CLEAR      6   2  83 CALM      30.60S
MARSHALL       CLEAR      6   2  83 NW10      30.59R WCI  -9
REDWOOD FALLS  CLOUDY     9   3  77 NW14G21   30.58R WCI  -7
OLIVIA         CLEAR     10   5  79 NW10      30.55S WCI  -3
PIPESTONE      CLEAR      7   1  78 NW9       30.54S WCI  -7
WINDOM         FLURRIES  10   7  85 NW9       30.55R WCI  -2
WORTHINGTON    CLEAR      7   3  84 NW9       30.55S WCI  -7
JACKSON        FLURRIES  10   5  79 NW10      30.55R WCI  -3
TRACY          CLEAR      9   5  84 NW9       30.57S WCI  -4
SLAYTON        CLEAR      7   4  87 NW10      30.55R WCI  -8
$$
MNZ065>067-074>077-082>085-091>093-090600-
   South Central Minnesota

CITY           SKY/WX    TMP DP  RH WIND       PRES   REMARKS
MANKATO        FLURRIES  14   9  80 NW14      30.55R WCI  -1
NEW ULM        FLURRIES  12   7  79 NW15      30.56R WCI  -4
ST JAMES       FLURRIES  12   9  85 W15G21    30.57S WCI  -4
FAIRMONT       FLURRIES  12   7  80 NW16      30.56S WCI  -5
GLENCOE        CLOUDY    15  12  89 W13       30.53R WCI   1
FARIBAULT      LGT SNOW  16  12  86 W13       30.51R WCI   2
OWATONNA       FLURRIES  16  10  79 W15       30.50R WCI   1
WASECA         LGT SNOW  14  10  85 W13       30.53R WCI   0
ALBERT LEA     FLURRIES  18  14  86 NW9       30.51R WCI   6
$$
MNZ078>079-086>088-094>096-090600-
   Southeast Minnesota

CITY           SKY/WX    TMP DP  RH WIND       PRES   REMARKS
ROCHESTER      FLURRIES  16  12  84 W15       30.46R WCI   1
RED WING       CLOUDY    21  12  68 W6        30.48S WCI  14
STANTON        CLOUDY    19  14  81 W14       30.50R WCI   5
DODGE CENTER   FLURRIES  14  10  85 W15       30.47R WCI  -1
WINONA           N/A     23  16  74 NW7       30.48R WCI  15
AUSTIN         FLURRIES  16  10  79 NW12      30.49R WCI   3
PRESTON        FLURRIES  16  12  84 NW13      30.46S WCI   2
$$
ABBREVIATIONS USED IN REMARKS
   TC - TEMPERATURES IN CELSIUS
  WCI - WIND CHILL INDEX
   HX - HEAT INDEX
  VSB - VISIBILITY
$$



USA.gov is the U.S. government's official web portal to all federal, state and local government web resources and services.